TimeMST,TemperatureF,Dew PointF,Humidity,Sea Level PressureIn,VisibilityMPH,Wind Direction,Wind SpeedMPH,Gust SpeedMPH,PrecipitationIn,Events,Conditions,WindDirDegrees,DateUTC
12:51 AM,32.0,9.0,38,29.79,10.0,Calm,Calm,-,N/A,,Partly Cloudy,0,2013-01-12 07:51:00
1:51 AM,30.2,5.0,34,29.84,10.0,Calm,Calm,-,N/A,,Partly Cloudy,0,2013-01-12 08:51:00
2:51 AM,32.0,5.0,32,29.78,10.0,ENE,3.5,-,N/A,,Partly Cloudy,60,2013-01-12 09:51:00
3:51 AM,28.9,7.0,40,29.80,10.0,Calm,Calm,-,N/A,,Clear,0,2013-01-12 10:51:00
4:51 AM,28.9,8.1,41,29.81,10.0,Calm,Calm,-,N/A,,Partly Cloudy,0,2013-01-12 11:51:00
5:51 AM,32.0,5.0,32,29.87,10.0,East,3.5,-,N/A,,Scattered Clouds,100,2013-01-12 12:51:00
6:51 AM,32.0,6.8,35,29.90,10.0,SSE,5.8,-,N/A,,Scattered Clouds,160,2013-01-12 13:51:00
7:51 AM,30.0,9.0,41,29.90,10.0,SSW,6.9,-,N/A,,Scattered Clouds,200,2013-01-12 14:51:00
8:51 AM,31.1,7.0,36,29.93,10.0,Variable,5.8,-,N/A,,Scattered Clouds,0,2013-01-12 15:51:00
9:51 AM,34.0,7.0,32,29.90,10.0,West,8.1,-,N/A,,Partly Cloudy,270,2013-01-12 16:51:00
10:51 AM,39.9,8.1,27,29.90,10.0,West,12.7,-,N/A,,Clear,270,2013-01-12 17:51:00
11:51 AM,41.0,6.1,24,29.88,10.0,West,11.5,20.7,N/A,,Clear,260,2013-01-12 18:51:00
12:51 PM,43.0,5.0,21,29.85,10.0,WSW,23.0,34.5,N/A,,Clear,240,2013-01-12 19:51:00
1:51 PM,43.0,3.9,20,29.86,8.0,WSW,27.6,36.8,N/A,,Partly Cloudy,250,2013-01-12 20:51:00
2:51 PM,42.1,3.9,21,29.86,10.0,WNW,15.0,28.8,N/A,,Scattered Clouds,290,2013-01-12 21:51:00
3:51 PM,42.1,3.9,21,29.85,10.0,WSW,19.6,25.3,N/A,,Scattered Clouds,240,2013-01-12 22:51:00
4:51 PM,39.0,9.0,29,29.89,10.0,West,20.7,31.1,N/A,,Scattered Clouds,280,2013-01-12 23:51:00
5:51 PM,37.0,7.0,29,29.91,10.0,NW,17.3,25.3,N/A,,Mostly Cloudy,310,2013-01-13 00:51:00
6:51 PM,37.0,6.1,28,29.94,10.0,WNW,17.3,24.2,N/A,,Mostly Cloudy,300,2013-01-13 01:51:00
7:51 PM,35.1,5.0,28,29.96,10.0,NW,13.8,21.9,N/A,,Scattered Clouds,310,2013-01-13 02:51:00
8:51 PM,35.1,3.0,26,29.96,10.0,WNW,17.3,28.8,N/A,,Partly Cloudy,300,2013-01-13 03:51:00
9:51 PM,34.0,1.9,26,30.00,10.0,NNW,16.1,-,N/A,,Partly Cloudy,330,2013-01-13 04:51:00
10:51 PM,33.1,1.0,26,30.00,10.0,North,13.8,-,N/A,,Partly Cloudy,350,2013-01-13 05:51:00
11:51 PM,30.9,1.9,29,30.02,10.0,NNW,11.5,-,N/A,,Clear,330,2013-01-13 06:51:00